Regional Weather Roundup
Issued by NWS Little Rock, AR

Home | Current Version | Previous Version | Text Only | Print | Product List | Glossary On
Versions: 1 2 3 4 5 6 7 8 9 10 11 12 13 14 15 16 17 18 19 20 21 22 23 24 25 26 27 28 29 30 31 32 33 34 35 36 37 38 39 40 41 42 43 44 45 46 47 48 49 50
000
ASUS44 KLZK 250014
RWRLZK

WEATHER ROUNDUP FOR ARKANSAS
NATIONAL WEATHER SERVICE LITTLE ROCK AR
700 PM CDT SAT SEP 24 2016

NOTE: "FAIR" INDICATES FEW OR NO CLOUDS BELOW 12,000 FEET WITH NO
SIGNIFICANT WEATHER AND/OR OBSTRUCTIONS TO VISIBILITY.

ARZ001-003-010-029-250100-
NORTHWEST ARKANSAS

CITY           SKY/WX    TMP DP  RH WIND       PRES   REMARKS
FAYETTEVILLE   PTCLDY    82  68  62 SE6       29.99S HX  85
6HR MIN TEMP:  82; 6HR MAX TEMP:  88;

FORT SMITH     CLEAR     87  64  46 SE7       29.93S HX  88
6HR MIN TEMP:  87; 6HR MAX TEMP:  94;

HARRISON       CLEAR     80  67  64 S5        30.01F
6HR MIN TEMP:  80; 6HR MAX TEMP:  89;

BENTONVILLE    CLEAR     82  64  54 SE8G17    29.99S
6HR MIN TEMP:  82; 6HR MAX TEMP:  90;

ROGERS         CLEAR     81  69  67 SE8       29.99F
6HR MIN TEMP:  81; 6HR MAX TEMP:  88;

SILOAM SPGS    PTCLDY    82  63  51 SE8         N/A
6HR MIN TEMP:  82; 6HR MAX TEMP:  91;

HIGHFILL       CLEAR     82  68  62 S9        29.98S HX  85
6HR MIN TEMP:  82; 6HR MAX TEMP:  90;

SPRINGDALE     CLEAR     82  68  61 SE7       30.00S HX  85
$$

ARZ004-005-016-250100-
NORTH CENTRAL ARKANSAS

CITY           SKY/WX    TMP DP  RH WIND       PRES   REMARKS
BATESVILLE     CLOUDY    82  70  65 CALM      29.99S HX  86
6HR MIN TEMP:  82; 6HR MAX TEMP:  93;

FLIPPIN        CLEAR     82  66  57 SE3       29.97F HX  85
6HR MIN TEMP:  82; 6HR MAX TEMP:  90;

MTN HOME       CLEAR     81  68  64 CALM      29.99F
6HR MIN TEMP:  81; 6HR MAX TEMP:  90;

$$

ARZ040-041-250100-
WEST CENTRAL ARKANSAS

CITY           SKY/WX    TMP DP  RH WIND       PRES   REMARKS
MENA           CLEAR     82  72  69 CALM      29.99F HX  87
MOUNT IDA      CLEAR     81  70  69 CALM      29.97F
6HR MIN TEMP:  81; 6HR MAX TEMP:  90;

$$

ARZ009-017-025-026-028-250100-
NORTHEAST ARKANSAS

CITY           SKY/WX    TMP DP  RH WIND       PRES   REMARKS
CORNING          N/A     84  73  70 E3        29.99F HX  91
JONESBORO      MOCLDY    90  66  45 SE3       29.98S HAZE    HX  92
6HR MIN TEMP:  89; 6HR MAX TEMP:  95;

NEWPORT        CLOUDY    85  71  63 S3        29.98  HX  90
6HR MIN TEMP:  84; 6HR MAX TEMP:  94;

WALNUT RIDGE   CLEAR     84  66  54 E3        29.97F HX  86
6HR MIN TEMP:  84; 6HR MAX TEMP:  93;

BLYTHEVILLE    CLEAR     84  70  62 E3        29.99F HX  88
6HR MIN TEMP:  84; 6HR MAX TEMP:  96;

$$

ARZ022-023-033-042-044-250100-
CENTRAL ARKANSAS

CITY           SKY/WX    TMP DP  RH WIND       PRES   REMARKS
LITTLE ROCK    PTCLDY    86  70  58 S5        29.97F HX  90
6HR MIN TEMP:  86; 6HR MAX TEMP:  94;

N LITTLE ROCK    N/A     86  67  53 S5        29.95S HX  89
6HR MIN TEMP:  86; 6HR MAX TEMP:  92;

JACKSONVILLE   CLEAR     86  67  53 S5        29.97F HX  89
6HR MIN TEMP:  86; 6HR MAX TEMP:  94;

SEARCY         MOCLDY    83  76  79 CALM      29.99S HX  91
6HR MIN TEMP:  83; 6HR MAX TEMP:  93;

HOT SPRINGS    CLEAR     85  69  58 CALM      29.98F HX  89
6HR MIN TEMP:  85; 6HR MAX TEMP:  90;

RUSSELLVILLE   CLEAR     81  71  71 CALM      29.95F HX  85
6HR MIN TEMP:  81; 6HR MAX TEMP:  91;

$$

ARZ036-250100-
EAST ARKANSAS

CITY           SKY/WX    TMP DP  RH WIND       PRES   REMARKS
WEST MEMPHIS   CLEAR     82  67  60 CALM      29.97S
6HR MIN TEMP:  82; 6HR MAX TEMP:  96;

$$

ARZ050-053-066-070-073-250100-
SOUTHWEST ARKANSAS

CITY           SKY/WX    TMP DP  RH WIND       PRES   REMARKS
ARKADELPHIA    FAIR      82  76  81 CALM      29.97S HX  89
6HR MIN TEMP:  82; 6HR MAX TEMP:  90;

TEXARKANA      CLEAR     85  68  56 SE6       29.95F HX  88
6HR MIN TEMP:  85; 6HR MAX TEMP:  93;

EL DORADO      HAZE      84  72  67 SE3       29.98S VSB 1/4 HX  89
6HR MIN TEMP:  84; 6HR MAX TEMP:  91;

DE QUEEN       CLEAR     84  71  65 E6        29.92F HX  89
6HR MIN TEMP:  84; 6HR MAX TEMP:  91;

$$

ARZ056-057-069-250100-
SOUTHEAST ARKANSAS

CITY           SKY/WX    TMP DP  RH WIND       PRES   REMARKS
PINE BLUFF     PTCLDY    85  69  58 E5        29.97F HX  89
6HR MIN TEMP:  85; 6HR MAX TEMP:  93;

STUTTGART      PTCLDY    88  66  48 SE5       29.99S HX  90
6HR MIN TEMP:  88; 6HR MAX TEMP:  95;

MONTICELLO     CLEAR     84  72  67 CALM      29.98S HX  89
6HR MIN TEMP:  84; 6HR MAX TEMP:  93;


$$





USA.gov is the U.S. government's official web portal to all federal, state and local government web resources and services.